This demonstration page uses our WeatherBlox Daily Observations layout. Learn more.

Left ArrowRight Arrow

36.19886, -115.1175

Hourly Observations for August 24, 2021

Temp ( °F °C ) Dew Point ( °F °C ) Humidity (%) Winds ( mph kmh ) Pressure ( in mb ) Visibility ( mi km ) Precip ( " mm )
12:53 am 00:53 Clear 85 29.4 33 0.6 15 15 E 6 9 29.80 1009 10 16 0.00 0.00
1:53 am 01:53 Clear 83 28.3 33 0.6 17 17 SE 8 13 29.79 1009 10 16 0.00 0.00
2:53 am 02:53 Clear 82 27.8 35 1.7 18 18 SSE 3 6 29.80 1009 10 16 0.00 0.00
3:53 am 03:53 Clear 80 26.7 37 2.8 21 21 NE 3 6 29.82 1010 10 16 0.00 0.00
4:53 am 04:53 Clear 77 25 38 3.3 24 24 NNW 5 7 29.83 1010 10 16 0.00 0.00
5:53 am 05:53 Clear 78 25.6 38 3.3 24 24 Calm 29.84 1010 10 16 0.00 0.00
6:53 am 06:53 Sunny 78 25.6 39 3.9 25 25 Calm 29.86 1011 10 16 0.00 0.00
7:53 am 07:53 Sunny with Smoke 83 28.3 40 4.4 22 22 Calm 29.88 1012 10 16 0.00 0.00
8:53 am 08:53 Sunny with Smoke 86 30 43 6.1 22 22 SE 3 6 29.88 1012 10 16 0.00 0.00
9:53 am 09:53 Sunny with Smoke 91 32.8 45 7.2 20 20 SE 10 17 29.89 1012 10 16 0.00 0.00
10:53 am 10:53 Sunny with Smoke 94 34.4 42 5.6 17 17 S 9 15 29.89 1012 10 16 0.00 0.00
11:53 am 11:53 Sunny with Smoke 98 36.7 41 5 14 14 SE 17 28 29.88 1012 10 16 0.00 0.00
12:53 pm 12:53 Sunny with Smoke 101 38.3 29 -1.7 8 8 SSE 16 26 29.84 1011 10 16 0.00 0.00
1:53 pm 13:53 Sunny with Smoke 102 38.9 21 -6.1 5 5 S 15 24 29.83 1010 10 16 0.00 0.00
2:53 pm 14:53 Sunny with Smoke 103 39.4 27 -2.8 7 7 S 16 26 29.81 1010 10 16 0.00 0.00
3:53 pm 15:53 Sunny with Smoke 102 38.9 30 -1.1 8 8 SSE 12 19 29.80 1009 10 16 0.00 0.00
4:53 pm 16:53 Sunny with Smoke 103 39.4 20 -6.7 5 5 SSW 17 28 29.78 1009 10 16 0.00 0.00
5:53 pm 17:53 Sunny with Smoke 102 38.9 18 -7.8 5 5 SSW 13 20 29.78 1009 10 16 0.00 0.00
6:53 pm 18:53 Sunny with Smoke 100 37.8 13 -10.6 4 4 SW 12 19 29.78 1009 10 16 0.00 0.00
7:53 pm 19:53 Clear with Smoke 97 36.1 21 -6.1 6 6 SW 13 20 29.81 1009 10 16 0.00 0.00
8:53 pm 20:53 Clear with Smoke 95 35 23 -5 7 7 W 9 15 29.83 1010 10 16 0.00 0.00
9:53 pm 21:53 Clear with Smoke 93 33.9 26 -3.3 9 9 WSW 8 13 29.84 1011 10 16 0.00 0.00
10:53 pm 22:53 Clear with Smoke 90 32.2 29 -1.7 11 11 SW 5 7 29.86 1011 10 16 0.00 0.00
11:53 pm 23:53 Clear with Smoke 87 30.6 32 0 14 14 Calm 29.86 1011 10 16 0.00 0.00

Powered by AerisWeather